Theta_e
331 342 338 337 344 344 347 341 334 323 315 306 306 313 311 305 312 322 299 300 300 300 300 307 311 312 311 311 311 312 314 315 314 314 314 314 313 314 313 312 314 312 315 315 315 317 319 320 318
335 340 332 332 342 342 341 332 328 319 309 304 304 305 304 303 302 299 299 300 300 299 299 306 310 310 309 309 311 312 312 312 311 312 312 311 311 312 311 313 311 313 313 313 314 315 316 319 321
336 332 333 331 334 341 342 325 316 309 306 308 303 301 301 301 298 299 299 299 299 299 299 304 307 307 307 308 308 310 311 310 310 310 310 310 311 311 309 310 310 312 311 313 314 314 314 315 317
332 324 321 332 331 322 331 318 312 307 305 303 301 301 299 296 298 298 299 299 299 299 298 301 305 305 305 306 309 308 308 309 309 309 309 309 309 308 307 308 308 309 310 311 312 312 312 313 314
325 323 329 326 322 316 313 312 310 307 303 303 302 300 299 297 298 298 299 299 298 298 297 297 302 303 303 304 307 307 308 308 308 307 307 307 306 305 305 306 307 307 308 309 311 310 311 312 311
333 325 330 330 319 310 308 305 305 304 302 301 300 300 298 296 298 298 298 298 298 297 297 297 296 299 300 302 305 305 306 306 306 305 304 304 302 302 303 304 305 306 306 306 307 308 309 308 310
332 330 327 322 317 313 308 303 304 303 302 301 300 299 297 297 297 298 298 298 297 297 296 296 296 296 296 298 303 303 304 304 302 302 301 301 299 300 301 301 302 303 304 304 305 306 307 307 306
324 321 320 317 317 318 305 302 301 302 300 298 298 300 298 296 297 297 297 297 297 296 296 295 295 295 295 295 299 300 301 300 299 298 299 297 294 295 297 297 299 301 300 301 302 302 302 304 305
320 328 325 319 317 312 302 303 299 298 300 298 297 297 295 296 297 297 297 297 296 296 296 295 295 295 295 295 295 295 295 294 294 294 294 292 292 292 294 295 297 298 298 299 299 299 299 300 298
321 326 320 311 310 306 303 303 300 300 299 298 296 294 295 296 297 297 296 296 296 296 296 295 295 295 295 295 294 294 293 293 293 293 292 291 291 292 293 292 294 294 295 295 296 296 296 295 295
310 316 309 305 304 303 302 301 299 300 301 299 297 295 295 296 296 296 296 295 295 295 295 295 295 295 295 294 294 294 293 292 292 292 291 291 291 292 292 292 292 293 294 294 294 294 294 295 294
311 305 307 304 302 302 303 300 300 300 299 298 297 294 295 297 297 296 295 295 295 295 295 295 295 295 295 295 294 294 294 293 293 293 293 293 292 292 292 292 292 293 293 293 294 294 294 294 294
307 304 302 301 300 299 300 300 300 297 295 295 294 294 296 296 296 295 295 295 295 295 295 295 295 295 295 295 294 294 294 294 294 293 293 293 293 292 292 292 292 293 293 293 294 294 294 294 294
302 302 301 301 300 300 301 299 299 297 294 294 294 295 296 296 296 295 295 295 295 295 295 295 295 295 295 295 294 294 294 294 294 293 293 293 293 292 292 292 293 293 294 294 294 293 294 294 294
303 305 303 301 301 301 300 301 300 297 295 294 293 295 296 296 295 295 295 295 295 295 295 295 295 295 295 295 294 294 294 293 292 292 292 292 292 292 292 293 293 294 294 294 293 294 294 294 294
306 306 310 304 302 299 303 308 299 294 295 294 293 295 296 296 295 295 295 295 295 295 295 295 295 295 295 294 294 294 293 292 292 292 292 292 292 293 294 294 294 294 294 294 294 294 295 295 295
308 312 310 308 302 301 302 305 299 294 295 294 292 293 295 296 294 295 295 295 295 295 295 295 295 295 295 294 294 294 292 292 292 292 292 292 292 293 294 294 294 294 294 294 294 294 294 295 295
307 310 307 309 304 301 301 303 300 295 295 295 292 291 294 296 295 294 295 295 295 295 294 295 295 295 295 294 294 293 292 292 292 292 292 291 292 294 294 294 295 295 295 294 295 294 295 295 295
306 306 307 306 303 303 302 303 302 297 295 294 292 291 292 294 294 294 295 295 294 294 294 295 295 295 294 294 294 293 292 292 292 292 292 291 293 294 294 294 295 296 295 295 295 295 295 295 296
306 307 306 304 303 303 303 304 302 298 296 295 293 291 292 293 295 294 295 295 294 294 294 294 294 294 294 294 293 292 292 292 292 292 292 292 292 293 294 293 294 295 295 295 296 296 296 295 296
304 305 303 303 302 302 302 304 300 297 295 294 292 292 290 292 295 295 295 294 294 294 294 294 294 294 294 294 293 293 292 292 292 292 292 291 292 292 293 293 293 294 293 296 296 297 297 296 296
304 302 303 304 306 309 301 312 303 298 297 294 294 291 292 293 294 295 295 294 294 294 294 294 294 294 294 294 293 293 292 292 291 291 292 292 291 292 292 293 292 292 293 294 295 296 296 297 297
303 303 304 305 305 306 305 307 306 297 300 298 294 291 291 292 294 295 295 294 294 294 294 294 294 294 294 293 293 293 293 293 293 292 292 292 291 292 292 292 292 292 292 292 294 294 295 295 296
302 304 304 304 305 309 305 307 308 303 302 299 294 292 291 290 293 294 294 294 294 294 294 294 294 294 293 293 293 293 292 293 292 292 292 292 291 292 292 292 292 292 291 292 292 293 294 295 295
302 304 311 311 311 311 303 304 309 302 298 298 297 293 291 290 294 294 294 294 294 293 293 294 294 293 293 293 293 293 293 293 293 292 292 292 291 291 292 293 293 293 292 291 291 292 292 292 293
302 304 310 309 309 308 301 306 308 298 295 294 293 292 291 290 293 294 294 294 294 293 293 294 294 293 293 293 293 293 293 293 293 292 292 292 292 291 292 292 294 294 293 291 291 291 291 292 293
302 305 300 304 303 307 306 305 300 295 294 293 292 291 291 291 293 294 294 293 293 293 293 294 294 293 293 293 292 292 293 293 293 293 293 292 292 292 292 292 294 293 293 292 291 292 291 291 291
301 299 306 305 311 310 307 305 308 300 298 294 292 292 291 291 293 294 293 293 294 294 293 293 294 293 293 293 292 292 293 293 293 293 293 293 293 292 292 292 293 295 294 293 292 291 291 291 290
300 301 300 302 303 311 309 311 302 303 300 297 295 293 292 291 293 294 293 293 294 293 293 293 294 293 293 293 292 292 292 293 293 293 294 294 293 293 293 292 292 293 295 294 292 291 291 290 290
299 300 301 313 306 300 306 310 300 299 298 297 296 292 292 291 292 293 293 293 292 293 293 293 293 293 293 293 292 292 292 293 293 293 294 294 294 293 293 293 292 293 293 296 294 291 291 290 290
Wind_Speed
6 6 5 1 1 3 2 2 2 4 3 3 2 4 9 7 5 3 6 9 6 7 8 13 13 14 16 17 17 16 14 15 15 15 15 16 17 17 17 18 18 19 18 17 17 18 18 19 19
8 7 1 2 3 1 2 1 3 2 8 8 6 4 6 5 4 6 2 7 7 7 10 13 14 15 15 15 14 14 14 13 15 14 15 16 16 16 18 18 18 18 18 17 17 18 17 19 19
6 3 1 3 3 2 2 2 7 8 7 1 4 6 3 3 5 3 5 5 6 9 12 14 14 15 15 15 14 13 12 12 12 13 14 15 16 15 17 19 18 18 17 19 18 18 18 19 18
3 3 3 3 3 2 1 6 9 9 4 4 6 8 5 5 2 5 5 3 7 10 12 12 13 15 15 14 13 13 13 12 12 12 13 15 15 17 18 17 16 17 18 19 18 18 18 19 18
4 2 4 4 2 2 3 8 2 3 3 3 1 5 4 4 9 7 5 6 9 11 13 13 14 14 14 14 13 12 12 12 12 13 13 15 17 17 16 15 15 15 17 18 19 18 19 19 18
3 2 3 2 3 2 2 2 3 3 3 4 5 5 3 5 5 6 6 7 8 10 12 14 15 15 14 14 13 12 12 12 12 13 15 15 17 17 16 16 15 17 18 19 19 18 18 19 19
4 3 2 4 6 4 4 3 4 5 4 3 6 4 4 4 6 6 6 7 8 10 12 14 15 15 15 14 13 12 12 12 13 14 15 15 16 17 16 16 16 18 19 18 18 18 18 21 20
3 4 3 2 5 3 6 3 3 2 4 4 1 5 5 5 7 5 6 8 9 10 13 14 15 17 15 14 13 13 12 13 14 14 15 16 18 18 16 17 18 19 19 19 18 18 18 19 20
1 3 2 5 6 5 5 4 2 3 6 3 4 4 8 11 7 4 6 8 9 10 13 14 16 17 16 13 15 15 14 16 16 17 17 19 19 18 16 17 18 18 20 18 18 18 18 18 20
4 2 2 0 2 4 7 2 6 4 5 4 7 8 9 9 6 6 7 7 8 9 12 13 15 15 15 14 16 15 18 18 17 17 18 19 18 18 17 19 18 18 18 18 18 19 18 17 17
3 3 2 4 2 7 7 4 2 10 2 5 9 10 7 7 5 6 5 4 5 7 10 11 14 14 14 15 14 16 18 19 19 18 19 20 20 19 19 20 20 20 18 17 17 18 16 18 18
5 4 2 2 3 4 6 6 4 3 2 5 13 13 7 7 5 4 4 4 4 7 9 9 11 14 13 14 15 15 17 18 19 18 19 20 20 20 21 19 19 17 18 19 17 18 18 18 18
4 2 4 4 7 6 6 4 4 4 5 11 12 9 9 6 5 2 3 4 5 8 9 9 10 13 13 14 14 15 17 18 19 18 18 20 21 20 21 21 20 19 18 18 19 19 19 19 18
2 6 5 3 3 3 4 2 1 4 6 8 8 7 6 6 3 3 3 3 6 8 9 9 9 12 12 14 15 15 17 18 20 18 19 19 20 20 19 20 21 20 20 19 18 18 17 19 21
4 4 2 1 2 2 5 1 4 7 8 8 7 6 5 4 3 4 2 2 5 8 9 8 9 11 13 15 16 16 17 20 18 17 16 17 19 21 21 21 22 21 20 20 17 17 16 18 21
3 3 1 2 3 1 0 3 2 8 11 9 7 5 5 4 3 2 0 1 4 6 7 7 9 10 12 15 16 15 16 14 15 16 17 18 19 20 20 22 23 23 22 20 17 17 17 19 20
4 1 1 1 5 3 2 1 3 7 8 9 7 6 5 3 3 2 1 1 4 6 6 6 9 10 12 14 14 14 14 13 14 16 18 18 19 20 17 20 22 20 18 17 16 18 18 20 20
2 1 2 3 3 3 3 7 3 8 8 9 8 6 5 4 4 4 3 1 4 4 5 5 8 9 11 13 13 15 12 13 14 15 17 19 20 18 18 19 19 20 16 16 15 18 17 18 19
4 2 2 1 3 3 5 8 6 10 7 8 9 8 7 5 5 5 3 2 4 3 4 5 7 9 11 14 14 14 13 15 13 17 17 19 18 18 19 16 16 18 19 18 19 20 17 20 19
2 1 2 1 2 4 0 9 5 8 7 10 11 10 8 4 6 7 5 3 2 3 4 4 6 7 9 11 11 12 13 12 14 17 17 18 18 19 19 18 16 17 18 19 18 18 18 15 19
2 2 2 2 1 1 5 4 2 1 3 5 8 6 7 9 7 7 6 3 3 3 3 4 6 7 8 9 11 11 12 13 13 18 19 20 19 19 19 20 17 17 18 17 17 20 18 16 17
1 1 2 2 2 2 3 3 2 2 7 6 9 9 9 9 6 7 6 5 4 3 3 4 5 7 8 8 10 9 10 8 13 17 18 18 18 18 19 17 19 19 20 16 16 16 16 16 14
2 1 2 2 3 1 1 0 3 2 6 10 12 11 10 9 8 8 8 7 4 3 3 3 4 5 6 6 9 9 10 12 14 16 16 18 17 17 19 18 17 19 20 21 17 16 16 17 16
5 3 4 3 1 1 0 1 3 4 4 2 4 12 12 10 9 9 9 7 5 5 3 3 4 5 6 5 8 9 10 12 14 15 15 18 18 18 20 19 19 17 20 21 19 18 15 15 18
2 3 3 2 3 2 2 0 6 4 6 4 4 12 12 10 9 10 10 9 8 7 5 3 4 4 5 5 6 8 9 10 12 14 15 17 18 18 21 22 19 18 17 19 20 19 19 20 18
1 2 3 2 2 4 1 5 2 2 1 2 3 9 10 10 9 10 12 11 12 9 6 5 5 4 5 6 6 8 9 10 11 13 15 16 17 17 18 21 19 18 16 17 17 18 17 18 19
1 1 1 5 2 1 2 5 4 1 4 3 5 8 11 11 11 11 12 12 11 9 8 6 6 6 5 6 7 7 8 9 10 11 13 14 14 16 17 19 20 17 18 19 17 15 15 16 16
3 3 2 2 1 3 3 4 4 6 10 10 10 12 11 10 10 11 13 13 14 11 9 8 8 8 7 6 7 8 8 9 9 10 12 13 14 14 16 18 20 17 18 18 19 16 14 15 15
2 1 4 3 1 3 2 5 6 8 9 15 15 14 13 13 12 12 14 15 14 12 12 11 11 9 8 7 7 8 9 9 9 11 13 14 14 14 15 17 17 19 18 17 16 16 13 15 15
2 4 4 3 3 1 1 6 3 5 5 8 11 13 12 12 12 15 15 15 15 15 14 13 12 10 8 7 7 8 8 9 10 11 13 14 15 15 15 16 16 16 19 16 15 16 14 13 15
Wind_Direction
168 166 169 46 137 70 103 108 106 116 104 26 66 72 93 48 35 86 79 70 66 49 33 28 6 359 353 349 346 346 345 346 347 344 356 359 352 352 349 350 347 345 346 345 339 332 337 337 326
154 160 104 84 93 141 143 128 121 82 129 134 78 68 52 79 53 94 145 61 45 29 18 23 5 0 354 350 351 351 351 348 352 356 354 354 356 356 355 352 349 348 348 345 343 338 330 334 337
144 166 83 86 86 125 140 136 121 108 132 105 104 46 74 58 57 82 87 56 20 6 4 17 7 1 357 356 356 358 357 354 354 356 356 357 356 356 353 348 346 345 347 344 346 343 340 329 327
155 44 54 73 85 82 86 131 133 129 105 72 110 81 82 12 42 105 94 60 13 20 16 26 12 7 6 10 8 6 5 4 4 2 359 357 353 349 345 343 343 344 342 342 340 340 338 335 320
66 66 68 74 102 96 84 129 115 112 108 78 132 120 75 58 103 107 80 46 27 23 17 15 18 16 16 14 12 10 12 11 5 2 0 355 351 347 347 350 348 345 342 339 338 334 331 336 328
60 89 71 163 144 111 103 119 119 101 102 123 102 99 89 139 124 87 67 41 35 25 16 11 12 18 16 15 13 12 11 11 12 5 357 353 354 358 354 351 349 345 341 337 334 327 329 329 325
103 80 114 126 153 168 166 112 126 122 122 89 126 87 120 150 115 94 71 56 43 33 20 17 14 11 7 15 19 23 23 18 8 3 2 359 359 359 358 351 347 343 339 336 334 329 327 323 322
97 92 111 144 176 180 153 104 98 122 107 113 94 138 158 158 142 99 68 48 36 26 20 19 14 9 12 19 25 19 17 9 7 6 5 360 354 356 353 349 344 341 340 338 334 330 322 319 316
98 73 151 176 167 151 159 131 68 68 101 70 31 79 109 132 130 95 53 37 30 27 21 18 14 14 17 16 13 8 8 0 357 359 360 357 358 360 356 353 349 343 344 342 338 333 329 320 313
54 86 119 7 146 160 153 118 129 130 124 79 87 92 116 125 104 74 46 28 25 21 18 14 12 15 11 8 6 11 7 6 5 5 8 7 3 2 359 358 352 348 347 343 341 338 331 332 323
26 96 136 17 98 129 130 103 98 133 170 169 164 154 138 120 103 76 56 35 21 20 15 8 9 7 7 7 7 10 13 17 19 18 13 10 6 1 358 354 349 347 344 343 340 339 335 330 324
95 53 73 126 98 102 122 115 88 42 69 147 146 148 141 132 100 84 53 32 30 17 13 6 8 6 8 7 7 6 7 10 10 9 5 0 355 352 350 346 343 343 342 337 334 330 327 324 321
79 121 56 74 85 82 103 78 130 105 119 112 128 127 132 130 114 90 51 26 23 12 7 8 8 9 8 7 4 2 2 2 356 351 351 349 345 342 340 339 339 337 336 334 331 327 325 324 321
93 98 111 50 89 98 109 131 102 169 142 126 129 128 141 128 136 107 57 30 15 3 3 7 8 6 5 3 1 2 357 352 347 345 344 345 342 341 339 338 339 339 337 332 329 325 324 324 322
132 91 89 94 120 106 140 185 219 148 160 146 143 146 139 136 136 88 49 38 10 359 360 1 0 1 0 1 2 0 356 349 355 355 356 352 349 345 342 344 341 337 337 332 329 325 322 324 322
63 70 39 173 156 106 33 278 159 158 158 168 165 162 163 160 147 106 121 70 359 354 356 1 0 1 2 2 359 357 351 3 5 3 359 354 351 348 347 351 346 342 343 338 333 331 323 322 321
18 258 230 282 195 134 186 270 153 179 179 177 184 184 184 181 163 179 223 245 339 349 354 358 1 2 1 1 2 2 8 5 4 2 359 357 352 349 355 354 356 354 339 339 336 328 328 322 320
212 239 241 264 180 178 176 247 188 195 196 196 193 198 202 202 210 206 219 279 331 324 347 350 359 357 358 359 1 5 15 12 9 7 3 360 356 357 359 350 353 355 346 351 339 337 326 322 317
120 168 238 196 170 179 227 261 227 203 211 200 203 207 210 213 214 208 217 296 320 316 331 343 353 353 354 359 2 1 1 4 12 11 7 1 1 1 356 349 349 344 344 344 346 341 328 323 330
134 162 261 148 115 193 222 267 271 195 220 206 199 209 209 196 203 216 223 276 287 321 328 339 345 353 357 359 1 0 355 6 12 9 10 8 5 5 2 355 349 344 343 342 342 343 323 316 326
139 180 195 223 86 189 315 275 285 195 229 204 204 201 205 207 209 214 216 254 271 287 307 333 343 355 355 354 354 0 9 12 2 2 5 8 6 5 4 7 2 354 353 345 341 344 333 322 329
254 169 131 125 52 299 357 301 268 260 253 218 211 197 204 199 209 210 205 231 244 277 307 321 340 349 352 354 354 1 2 355 353 354 358 0 6 6 4 360 0 0 2 347 342 340 343 349 331
164 114 99 100 98 47 28 171 254 333 268 233 217 207 206 205 206 206 208 226 240 258 287 327 328 335 343 348 356 355 353 350 348 349 356 1 5 8 6 4 2 5 2 360 349 344 344 354 340
144 93 54 65 104 39 158 25 264 203 213 253 205 203 202 203 207 209 209 217 221 233 249 270 316 331 341 337 349 349 343 342 345 351 354 359 1 5 6 5 3 357 1 3 2 360 359 352 351
77 66 341 341 9 249 124 21 254 228 223 227 211 200 199 197 199 205 203 210 220 227 236 256 285 304 321 327 322 330 336 334 335 343 346 352 356 357 1 2 357 358 360 4 7 8 7 2 352
251 173 147 262 282 296 100 236 243 202 240 263 239 195 182 193 202 205 208 212 216 218 228 237 262 287 293 314 311 312 325 323 332 339 339 344 349 352 355 359 1 4 3 360 357 2 1 356 356
134 229 138 103 60 310 250 276 247 235 229 228 169 176 194 198 198 207 208 210 216 221 230 236 255 270 281 299 302 306 318 320 322 334 338 342 347 350 354 360 4 8 6 359 354 354 354 352 356
161 123 59 33 157 278 279 279 250 224 222 214 208 208 207 203 200 206 208 207 212 221 225 237 251 267 277 292 301 303 315 320 321 328 337 345 344 344 347 351 2 360 355 360 360 354 353 358 1
109 273 48 109 85 180 301 266 209 203 194 200 212 208 202 202 201 203 205 207 213 221 221 227 232 243 260 280 297 307 319 321 323 329 340 342 343 342 341 342 349 0 358 356 357 357 351 359 358
213 188 162 126 212 62 120 270 179 212 200 204 207 204 202 203 199 200 202 202 207 216 221 231 238 248 265 282 292 304 314 319 319 325 333 338 338 336 333 337 340 345 352 352 353 355 354 353 355